Location: ????? ???????
(25.7275°N, 32.5929°E)
Time: 12:03:28
(UTC+00:00)

YAOGAN 1 - Pass Details

Date: 02 March 2021
Orbit: 618 x 620 km, 97.9° (Epoch: 16 April)

Event Time Altitude Azimuth Distance (km) Brightness Sun altitude
Rises 17:13:48 0° 184° (S) 2,879 6.0 -19.2°
Reaches altitude 10° 17:16:06 10° 193° (SSW) 1,977 5.3 -19.7°
Maximum altitude 17:20:05 37° 261° (W) 962 4.1 -20.6°
Drops below altitude 10° 17:24:05 10° 329° (NNW) 1,986 5.6 -21.5°
Sets 17:26:25 0° 338° (NNW) 2,895 6.3 -22.1°
